"Sample Date","Sample Time","Sample Value","Units","Flow Rate","Sample Interval","Number Channels","Micron Size 0","Counts/Channel 0","Micron Size 1","Counts/Channel 1","Micron Size 2","Counts/Channel 2","Micron Size 3","Counts/Channel 3","Micron Size 4","Counts/Channel 4","Micron Size 5","Counts/Channel 5","Micron Size 6","Counts/Channel 6","Micron Size 7","Counts/Channel 7","Micron Size 8","Counts/Channel 8","Micron Size 9","Counts/Channel 9","Micron Size 10","Counts/Channel 10","Micron Size 11","Counts/Channel 11","Micron Size 12","Counts/Channel 12","Micron Size 13","Counts/Channel 13","Micron Size 14","Counts/Channel 14","Micron Size 15","Counts/Channel 15","Micron Size 16","Counts/Channel 16","Micron Size 17","Counts/Channel 17","Micron Size 18","Counts/Channel 18","Micron Size 19","Counts/Channel 19","Micron Size 20","Counts/Channel 20","Micron Size 21","Counts/Channel 21","Micron Size 22","Counts/Channel 22","Micron Size 23","Counts/Channel 23","Micron Size 24","Counts/Channel 24","Micron Size 25","Counts/Channel 25","Micron Size 26","Counts/Channel 26","Micron Size 27","Counts/Channel 27","Micron Size 28","Counts/Channel 28","Micron Size 29","Counts/Channel 29","Micron Size 30","Counts/Channel 30","Micron Size 31","Counts/Channel 31"
"03/08/08","11:00:03",4086.000,"cc",28246.463,6.00,6,0.100,3702.000,0.200,338.000,0.300,38.000,0.500,7.000,1.000,1.000,5.000,0
"03/08/08","11:00:09",4191.000,"cc",28310.430,6.00,6,0.100,3802.000,0.200,330.000,0.300,46.000,0.500,13.000,1.000,0,5.000,0
"03/08/08","11:00:15",4427.000,"cc",28372.627,6.00,6,0.100,3994.000,0.200,370.000,0.300,54.000,0.500,8.000,1.000,1.000,5.000,0
"03/08/08","11:00:21",4346.000,"cc",28313.500,6.00,6,0.100,3891.000,0.200,379.000,0.300,66.000,0.500,10.000,1.000,0,5.000,0
"03/08/08","11:00:27",4340.000,"cc",28294.721,6.00,6,0.100,3918.000,0.200,342.000,0.300,68.000,0.500,12.000,1.000,0,5.000,0
"03/08/08","11:00:33",4228.000,"cc",28271.854,6.00,6,0.100,3842.000,0.200,319.000,0.300,55.000,0.500,12.000,1.000,0,5.000,0
"03/08/08","11:00:39",4426.000,"cc",28380.328,6.00,6,0.100,3987.000,0.200,345.000,0.300,70.000,0.500,24.000,1.000,0,5.000,0
"03/08/08","11:00:45",4420.000,"cc",28306.303,6.00,6,0.100,3984.000,0.200,374.000,0.300,45.000,0.500,16.000,1.000,1.000,5.000,0
"03/08/08","11:00:51",4403.000,"cc",28325.576,6.00,6,0.100,3928.000,0.200,398.000,0.300,60.000,0.500,16.000,1.000,1.000,5.000,0
"03/08/08","11:00:57",4468.000,"cc",28251.969,6.00,6,0.100,3987.000,0.200,391.000,0.300,80.000,0.500,9.000,1.000,1.000,5.000,0
"03/08/08","11:01:03",4664.000,"cc",28323.221,6.00,6,0.100,4175.000,0.200,387.000,0.300,81.000,0.500,18.000,1.000,3.000,5.000,0
"03/08/08","11:01:09",4713.000,"cc",28387.260,6.00,6,0.100,4174.000,0.200,413.000,0.300,89.000,0.500,34.000,1.000,3.000,5.000,0
"03/08/08","11:01:15",4661.000,"cc",28271.625,6.00,6,0.100,4172.000,0.200,392.000,0.300,73.000,0.500,24.000,1.000,0,5.000,0
"03/08/08","11:01:21",4563.000,"cc",28320.762,6.00,6,0.100,4072.000,0.200,392.000,0.300,77.000,0.500,20.000,1.000,2.000,5.000,0
"03/08/08","11:01:27",4665.000,"cc",28271.088,6.00,6,0.100,4189.000,0.200,395.000,0.300,69.000,0.500,12.000,1.000,0,5.000,0
"03/08/08","11:01:33",4623.000,"cc",28329.881,6.00,6,0.100,4138.000,0.200,394.000,0.300,74.000,0.500,17.000,1.000,0,5.000,0
"03/08/08","11:01:39",4587.000,"cc",28345.342,6.00,6,0.100,4100.000,0.200,408.000,0.300,63.000,0.500,16.000,1.000,0,5.000,0
"03/08/08","11:01:45",4629.000,"cc",28274.520,6.00,6,0.100,4153.000,0.200,380.000,0.300,84.000,0.500,12.000,1.000,0,5.000,0
"03/08/08","11:01:51",4761.000,"cc",28394.346,6.00,6,0.100,4271.000,0.200,393.000,0.300,73.000,0.500,24.000,1.000,0,5.000,0
"03/08/08","11:01:57",4840.000,"cc",28310.820,6.00,6,0.100,4322.000,0.200,440.000,0.300,64.000,0.500,14.000,1.000,0,5.000,0
"03/08/08","11:02:03",4751.000,"cc",28284.566,6.00,6,0.100,4222.000,0.200,403.000,0.300,93.000,0.500,29.000,1.000,4.000,5.000,0
"03/08/08","11:02:09",4720.000,"cc",28305.816,6.00,6,0.100,4214.000,0.200,418.000,0.300,69.000,0.500,19.000,1.000,0,5.000,0
"03/08/08","11:02:15",4837.000,"cc",28344.994,6.00,6,0.100,4324.000,0.200,425.000,0.300,69.000,0.500,19.000,1.000,0,5.000,0
"03/08/08","11:02:21",4779.000,"cc",28287.242,6.00,6,0.100,4270.000,0.200,421.000,0.300,68.000,0.500,19.000,1.000,1.000,5.000,0
"03/08/08","11:02:27",4749.000,"cc",28354.539,6.00,6,0.100,4248.000,0.200,397.000,0.300,77.000,0.500,26.000,1.000,1.000,5.000,0
"03/08/08","11:02:33",4950.000,"cc",28360.973,6.00,6,0.100,4404.000,0.200,461.000,0.300,64.000,0.500,20.000,1.000,1.000,5.000,0
"03/08/08","11:02:39",4649.000,"cc",28292.695,6.00,6,0.100,4178.000,0.200,398.000,0.300,54.000,0.500,18.000,1.000,1.000,5.000,0
"03/08/08","11:02:45",5168.000,"cc",28323.076,6.00,6,0.100,4578.000,0.200,472.000,0.300,80.000,0.500,36.000,1.000,2.000,5.000,0
"03/08/08","11:02:51",5126.000,"cc",28306.871,6.00,6,0.100,4502.000,0.200,484.000,0.300,93.000,0.500,43.000,1.000,4.000,5.000,0
"03/08/08","11:02:57",5124.000,"cc",28275.342,6.00,6,0.100,4510.000,0.200,492.000,0.300,82.000,0.500,39.000,1.000,1.000,5.000,0
"03/08/08","11:03:03",4763.000,"cc",28292.309,6.00,6,0.100,4280.000,0.200,419.000,0.300,45.000,0.500,19.000,1.000,0,5.000,0
"03/08/08","11:03:09",5022.000,"cc",28274.570,6.00,6,0.100,4495.000,0.200,445.000,0.300,67.000,0.500,15.000,1.000,0,5.000,0
"03/08/08","11:03:15",5021.000,"cc",28428.865,6.00,6,0.100,4504.000,0.200,427.000,0.300,74.000,0.500,16.000,1.000,0,5.000,0
"03/08/08","11:03:21",5014.000,"cc",28308.582,6.00,6,0.100,4501.000,0.200,431.000,0.300,56.000,0.500,24.000,1.000,2.000,5.000,0
"03/08/08","11:03:27",5053.000,"cc",28344.852,6.00,6,0.100,4543.000,0.200,436.000,0.300,57.000,0.500,17.000,1.000,0,5.000,0
"03/08/08","11:03:33",4831.000,"cc",28310.604,6.00,6,0.100,4325.000,0.200,426.000,0.300,61.000,0.500,18.000,1.000,1.000,5.000,0
"03/08/08","11:03:39",4854.000,"cc",28229.277,6.00,6,0.100,4349.000,0.200,424.000,0.300,67.000,0.500,13.000,1.000,1.000,5.000,0
"03/08/08","11:03:45",4970.000,"cc",28306.451,6.00,6,0.100,4464.000,0.200,424.000,0.300,65.000,0.500,17.000,1.000,0,5.000,0
"03/08/08","11:03:51",5037.000,"cc",28317.949,6.00,6,0.100,4536.000,0.200,453.000,0.300,36.000,0.500,12.000,1.000,0,5.000,0
"03/08/08","11:03:57",4821.000,"cc",28344.832,6.00,6,0.100,4323.000,0.200,447.000,0.300,40.000,0.500,11.000,1.000,0,5.000,0
"03/08/08","11:04:03",4989.000,"cc",28313.992,6.00,6,0.100,4446.000,0.200,448.000,0.300,64.000,0.500,29.000,1.000,2.000,5.000,0
"03/08/08","11:04:09",4979.000,"cc",28314.940,6.00,6,0.100,4436.000,0.200,468.000,0.300,57.000,0.500,18.000,1.000,0,5.000,0
"03/08/08","11:04:15",5427.000,"cc",28274.268,6.00,6,0.100,4856.000,0.200,449.000,0.300,95.000,0.500,24.000,1.000,3.000,5.000,0
"03/08/08","11:04:21",5572.000,"cc",28340.779,6.00,6,0.100,4930.000,0.200,507.000,0.300,88.000,0.500,39.000,1.000,8.000,5.000,0
"03/08/08","11:04:27",5035.000,"cc",28381.109,6.00,6,0.100,4522.000,0.200,450.000,0.300,55.000,0.500,8.000,1.000,0,5.000,0
"03/08/08","11:04:33",5057.000,"cc",28269.916,6.00,6,0.100,4534.000,0.200,439.000,0.300,66.000,0.500,18.000,1.000,0,5.000,0
"03/08/08","11:04:39",5248.000,"cc",28344.322,6.00,6,0.100,4645.000,0.200,502.000,0.300,84.000,0.500,16.000,1.000,1.000,5.000,0
"03/08/08","11:04:45",5113.000,"cc",28260.943,6.00,6,0.100,4561.000,0.200,441.000,0.300,86.000,0.500,23.000,1.000,2.000,5.000,0
"03/08/08","11:04:51",6603.000,"cc",28327.225,6.00,6,0.100,5847.000,0.200,645.000,0.300,80.000,0.500,29.000,1.000,2.000,5.000,0
"03/08/08","11:04:57",5280.000,"cc",28367.188,6.00,6,0.100,4684.000,0.200,500.000,0.300,77.000,0.500,18.000,1.000,1.000,5.000,0
"03/08/08","11:05:03",4893.000,"cc",28329.412,6.00,6,0.100,4380.000,0.200,464.000,0.300,44.000,0.500,5.000,1.000,0,5.000,0
"03/08/08","11:05:09",5133.000,"cc",28294.721,6.00,6,0.100,4593.000,0.200,451.000,0.300,67.000,0.500,22.000,1.000,0,5.000,0
"03/08/08","11:05:15",5082.000,"cc",28307.254,6.00,6,0.100,4566.000,0.200,441.000,0.300,63.000,0.500,11.000,1.000,1.000,5.000,0
"03/08/08","11:05:21",5044.000,"cc",28328.686,6.00,6,0.100,4553.000,0.200,427.000,0.300,54.000,0.500,10.000,1.000,0,5.000,0
"03/08/08","11:05:27",5024.000,"cc",28355.699,6.00,6,0.100,4500.000,0.200,428.000,0.300,76.000,0.500,20.000,1.000,0,5.000,0
"03/08/08","11:05:33",5364.000,"cc",28320.926,6.00,6,0.100,4814.000,0.200,480.000,0.300,60.000,0.500,10.000,1.000,0,5.000,0
"03/08/08","11:05:39",5345.000,"cc",28259.951,6.00,6,0.100,4752.000,0.200,507.000,0.300,66.000,0.500,20.000,1.000,0,5.000,0
"03/08/08","11:05:45",5073.000,"cc",28314.098,6.00,6,0.100,4541.000,0.200,471.000,0.300,56.000,0.500,5.000,1.000,0,5.000,0
"03/08/08","11:05:51",5244.000,"cc",28324.422,6.00,6,0.100,4704.000,0.200,464.000,0.300,59.000,0.500,15.000,1.000,2.000,5.000,0
"03/08/08","11:05:57",5615.000,"cc",28339.811,6.00,6,0.100,5006.000,0.200,545.000,0.300,51.000,0.500,12.000,1.000,1.000,5.000,0
"03/08/08","11:06:03",5282.000,"cc",28352.857,6.00,6,0.100,4705.000,0.200,486.000,0.300,72.000,0.500,18.000,1.000,1.000,5.000,0
"03/08/08","11:06:09",5251.000,"cc",28298.813,6.00,6,0.100,4682.000,0.200,477.000,0.300,72.000,0.500,20.000,1.000,0,5.000,0
"03/08/08","11:06:15",5478.000,"cc",28314.156,6.00,6,0.100,4868.000,0.200,529.000,0.300,65.000,0.500,16.000,1.000,0,5.000,0
"03/08/08","11:06:21",5371.000,"cc",28276.416,6.00,6,0.100,4762.000,0.200,541.000,0.300,48.000,0.500,19.000,1.000,1.000,5.000,0
"03/08/08","11:06:27",5361.000,"cc",28320.602,6.00,6,0.100,4775.000,0.200,509.000,0.300,67.000,0.500,9.000,1.000,1.000,5.000,0
"03/08/08","11:06:33",5607.000,"cc",28363.174,6.00,6,0.100,5013.000,0.200,510.000,0.300,73.000,0.500,11.000,1.000,0,5.000,0
"03/08/08","11:06:39",5857.000,"cc",28319.440,6.00,6,0.100,5236.000,0.200,548.000,0.300,56.000,0.500,15.000,1.000,2.000,5.000,0
"03/08/08","11:06:45",5390.000,"cc",28286.481,6.00,6,0.100,4789.000,0.200,512.000,0.300,70.000,0.500,18.000,1.000,1.000,5.000,0
"03/08/08","11:06:51",5490.000,"cc",28319.840,6.00,6,0.100,4913.000,0.200,493.000,0.300,70.000,0.500,14.000,1.000,0,5.000,0
"03/08/08","11:06:57",5511.000,"cc",28359.301,6.00,6,0.100,4886.000,0.200,550.000,0.300,59.000,0.500,14.000,1.000,2.000,5.000,0
"03/08/08","11:07:03",5232.000,"cc",28370.357,6.00,6,0.100,4633.000,0.200,527.000,0.300,62.000,0.500,10.000,1.000,0,5.000,0
"03/08/08","11:07:09",5597.000,"cc",28239.137,6.00,6,0.100,5006.000,0.200,524.000,0.300,57.000,0.500,10.000,1.000,0,5.000,0
"03/08/08","11:07:15",5564.000,"cc",28232.547,6.00,6,0.100,4959.000,0.200,539.000,0.300,54.000,0.500,10.000,1.000,2.000,5.000,0
"03/08/08","11:07:21",5721.000,"cc",28357.762,6.00,6,0.100,5085.000,0.200,574.000,0.300,53.000,0.500,8.000,1.000,1.000,5.000,0
"03/08/08","11:07:27",5763.000,"cc",28386.160,6.00,6,0.100,5064.000,0.200,590.000,0.300,80.000,0.500,28.000,1.000,1.000,5.000,0
"03/08/08","11:07:33",6039.000,"cc",28357.670,6.00,6,0.100,5312.000,0.200,571.000,0.300,120.000,0.500,32.000,1.000,4.000,5.000,0
"03/08/08","11:07:39",5766.000,"cc",28275.965,6.00,6,0.100,5082.000,0.200,584.000,0.300,83.000,0.500,17.000,1.000,0,5.000,0
"03/08/08","11:07:45",5463.000,"cc",28270.213,6.00,6,0.100,4876.000,0.200,517.000,0.300,60.000,0.500,9.000,1.000,1.000,5.000,0
"03/08/08","11:07:51",5654.000,"cc",28361.043,6.00,6,0.100,5009.000,0.200,570.000,0.300,59.000,0.500,16.000,1.000,0,5.000,0
"03/08/08","11:07:57",5748.000,"cc",28296.836,6.00,6,0.100,5071.000,0.200,568.000,0.300,89.000,0.500,20.000,1.000,0,5.000,0
"03/08/08","11:08:03",5842.000,"cc",28304.389,6.00,6,0.100,5118.000,0.200,612.000,0.300,82.000,0.500,30.000,1.000,0,5.000,0
"03/08/08","11:08:09",6338.000,"cc",28315.369,6.00,6,0.100,5650.000,0.200,602.000,0.300,74.000,0.500,12.000,1.000,0,5.000,0
"03/08/08","11:08:15",6202.000,"cc",28289.635,6.00,6,0.100,5471.000,0.200,625.000,0.300,68.000,0.500,33.000,1.000,5.000,5.000,0
"03/08/08","11:08:21",6527.000,"cc",28261.445,6.00,6,0.100,5466.000,0.200,768.000,0.300,196.000,0.500,92.000,1.000,5.000,5.000,0
"03/08/08","11:08:27",6013.000,"cc",28370.260,6.00,6,0.100,5331.000,0.200,566.000,0.300,78.000,0.500,35.000,1.000,3.000,5.000,0
"03/08/08","11:08:33",5735.000,"cc",28355.332,6.00,6,0.100,5117.000,0.200,536.000,0.300,67.000,0.500,13.000,1.000,2.000,5.000,0
"03/08/08","11:08:39",6040.000,"cc",28303.170,6.00,6,0.100,5406.000,0.200,542.000,0.300,66.000,0.500,26.000,1.000,0,5.000,0
"03/08/08","11:08:45",6721.000,"cc",28312.275,6.00,6,0.100,5933.000,0.200,690.000,0.300,82.000,0.500,15.000,1.000,1.000,5.000,0
"03/08/08","11:08:51",5814.000,"cc",28364.145,6.00,6,0.100,5186.000,0.200,556.000,0.300,58.000,0.500,14.000,1.000,0,5.000,0
"03/08/08","11:08:57",5959.000,"cc",28396.766,6.00,6,0.100,5221.000,0.200,629.000,0.300,90.000,0.500,18.000,1.000,1.000,5.000,0
"03/08/08","11:09:03",5891.000,"cc",28285.102,6.00,6,0.100,5191.000,0.200,605.000,0.300,70.000,0.500,25.000,1.000,0,5.000,0
"03/08/08","11:09:09",5981.000,"cc",28282.588,6.00,6,0.100,5311.000,0.200,590.000,0.300,71.000,0.500,8.000,1.000,1.000,5.000,0
"03/08/08","11:09:15",6046.000,"cc",28278.897,6.00,6,0.100,5391.000,0.200,562.000,0.300,74.000,0.500,15.000,1.000,4.000,5.000,0
"03/08/08","11:09:21",6247.000,"cc",28325.311,6.00,6,0.100,5531.000,0.200,616.000,0.300,81.000,0.500,17.000,1.000,2.000,5.000,0
"03/08/08","11:09:27",6196.000,"cc",28353.973,6.00,6,0.100,5414.000,0.200,658.000,0.300,94.000,0.500,29.000,1.000,1.000,5.000,0
"03/08/08","11:09:33",6188.000,"cc",28364.723,6.00,6,0.100,5475.000,0.200,625.000,0.300,71.000,0.500,16.000,1.000,1.000,5.000,0
"03/08/08","11:09:39",6077.000,"cc",28300.850,6.00,6,0.100,5381.000,0.200,615.000,0.300,69.000,0.500,12.000,1.000,0,5.000,0
"03/08/08","11:09:45",6167.000,"cc",28271.969,6.00,6,0.100,5463.000,0.200,626.000,0.300,61.000,0.500,15.000,1.000,2.000,5.000,0
"03/08/08","11:09:51",6238.000,"cc",28322.799,6.00,6,0.100,5487.000,0.200,622.000,0.300,89.000,0.500,37.000,1.000,3.000,5.000,0
"03/08/08","11:09:57",6076.000,"cc",28334.135,6.00,6,0.100,5367.000,0.200,616.000,0.300,73.000,0.500,19.000,1.000,1.000,5.000,0
"03/08/08","11:10:03",6193.000,"cc",28279.715,6.00,6,0.100,5487.000,0.200,609.000,0.300,81.000,0.500,16.000,1.000,0,5.000,0
"03/08/08","11:10:09",6239.000,"cc",28271.045,6.00,6,0.100,5471.000,0.200,638.000,0.300,94.000,0.500,33.000,1.000,3.000,5.000,0
"03/08/08","11:10:15",6108.000,"cc",28385.391,6.00,6,0.100,5336.000,0.200,665.000,0.300,81.000,0.500,25.000,1.000,1.000,5.000,0
"03/08/08","11:10:21",6249.000,"cc",28293.598,6.00,6,0.100,5499.000,0.200,631.000,0.300,86.000,0.500,31.000,1.000,2.000,5.000,0
"03/08/08","11:10:27",6119.000,"cc",28290.272,6.00,6,0.100,5394.000,0.200,627.000,0.300,76.000,0.500,22.000,1.000,0,5.000,0
"03/08/08","11:10:33",6317.000,"cc",28273.281,6.00,6,0.100,5596.000,0.200,616.000,0.300,88.000,0.500,17.000,1.000,0,5.000,0
"03/08/08","11:10:39",6177.000,"cc",28396.461,6.00,6,0.100,5454.000,0.200,658.000,0.300,55.000,0.500,10.000,1.000,0,5.000,0
"03/08/08","11:10:45",6377.000,"cc",28290.662,6.00,6,0.100,5552.000,0.200,705.000,0.300,98.000,0.500,21.000,1.000,1.000,5.000,0
"03/08/08","11:10:51",6185.000,"cc",28362.928,6.00,6,0.100,5498.000,0.200,597.000,0.300,71.000,0.500,19.000,1.000,0,5.000,0
"03/08/08","11:10:57",6433.000,"cc",28297.451,6.00,6,0.100,5678.000,0.200,667.000,0.300,70.000,0.500,17.000,1.000,1.000,5.000,0
"03/08/08","11:11:03",6304.000,"cc",28293.777,6.00,6,0.100,5590.000,0.200,639.000,0.300,62.000,0.500,13.000,1.000,0,5.000,0
"03/08/08","11:11:09",6308.000,"cc",28315.936,6.00,6,0.100,5632.000,0.200,588.000,0.300,67.000,0.500,21.000,1.000,0,5.000,0
"03/08/08","11:11:15",6538.000,"cc",28353.598,6.00,6,0.100,5688.000,0.200,716.000,0.300,107.000,0.500,24.000,1.000,3.000,5.000,0
"03/08/08","11:11:21",6441.000,"cc",28351.449,6.00,6,0.100,5664.000,0.200,670.000,0.300,88.000,0.500,17.000,1.000,2.000,5.000,0
"03/08/08","11:11:27",6591.000,"cc",28283.647,6.00,6,0.100,5793.000,0.200,663.000,0.300,103.000,0.500,31.000,1.000,1.000,5.000,0
"03/08/08","11:11:33",6476.000,"cc",28348.500,6.00,6,0.100,5666.000,0.200,708.000,0.300,80.000,0.500,20.000,1.000,2.000,5.000,0
"03/08/08","11:11:39",6541.000,"cc",28272.066,6.00,6,0.100,5807.000,0.200,646.000,0.300,77.000,0.500,10.000,1.000,1.000,5.000,0
"03/08/08","11:11:45",6479.000,"cc",28354.287,6.00,6,0.100,5660.000,0.200,727.000,0.300,80.000,0.500,12.000,1.000,0,5.000,0
"03/08/08","11:11:51",6704.000,"cc",28280.248,6.00,6,0.100,5889.000,0.200,680.000,0.300,100.000,0.500,34.000,1.000,1.000,5.000,0
"03/08/08","11:11:57",6808.000,"cc",28321.832,6.00,6,0.100,5977.000,0.200,686.000,0.300,110.000,0.500,33.000,1.000,2.000,5.000,0
"03/08/08","11:12:03",6704.000,"cc",28305.736,6.00,6,0.100,5944.000,0.200,673.000,0.300,65.000,0.500,21.000,1.000,1.000,5.000,0
"03/08/08","11:12:09",6735.000,"cc",28337.305,6.00,6,0.100,5901.000,0.200,718.000,0.300,99.000,0.500,16.000,1.000,1.000,5.000,0
"03/08/08","11:12:15",6633.000,"cc",28288.998,6.00,6,0.100,5839.000,0.200,699.000,0.300,83.000,0.500,12.000,1.000,0,5.000,0
"03/08/08","11:12:21",6845.000,"cc",28310.076,6.00,6,0.100,5857.000,0.200,835.000,0.300,113.000,0.500,35.000,1.000,5.000,5.000,0
"03/08/08","11:12:27",6808.000,"cc",28319.443,6.00,6,0.100,5948.000,0.200,728.000,0.300,98.000,0.500,31.000,1.000,3.000,5.000,0
"03/08/08","11:12:33",6994.000,"cc",28373.975,6.00,6,0.100,6153.000,0.200,735.000,0.300,83.000,0.500,22.000,1.000,1.000,5.000,0
"03/08/08","11:12:39",6870.000,"cc",28240.293,6.00,6,0.100,6055.000,0.200,716.000,0.300,83.000,0.500,16.000,1.000,0,5.000,0
"03/08/08","11:12:45",6769.000,"cc",28332.617,6.00,6,0.100,6010.000,0.200,692.000,0.300,48.000,0.500,19.000,1.000,0,5.000,0
"03/08/08","11:12:51",7024.000,"cc",28360.147,6.00,6,0.100,6092.000,0.200,755.000,0.300,124.000,0.500,47.000,1.000,6.000,5.000,0
"03/08/08","11:12:57",6876.000,"cc",28329.990,6.00,6,0.100,6067.000,0.200,732.000,0.300,63.000,0.500,13.000,1.000,1.000,5.000,0
"03/08/08","11:13:03",6893.000,"cc",28260.016,6.00,6,0.100,6040.000,0.200,765.000,0.300,70.000,0.500,18.000,1.000,0,5.000,0
"03/08/08","11:13:09",7265.000,"cc",28319.432,6.00,6,0.100,6381.000,0.200,793.000,0.300,74.000,0.500,17.000,1.000,0,5.000,0
"03/08/08","11:13:15",7450.000,"cc",28287.123,6.00,6,0.100,6594.000,0.200,764.000,0.300,73.000,0.500,18.000,1.000,1.000,5.000,0
"03/08/08","11:13:21",7465.000,"cc",28276.576,6.00,6,0.100,6553.000,0.200,789.000,0.300,87.000,0.500,34.000,1.000,2.000,5.000,0
"03/08/08","11:13:27",7129.000,"cc",28373.559,6.00,6,0.100,6245.000,0.200,777.000,0.300,85.000,0.500,22.000,1.000,0,5.000,0
"03/08/08","11:13:33",7071.000,"cc",28283.828,6.00,6,0.100,6213.000,0.200,780.000,0.300,65.000,0.500,12.000,1.000,1.000,5.000,0
"03/08/08","11:13:39",7163.000,"cc",28329.012,6.00,6,0.100,6296.000,0.200,764.000,0.300,85.000,0.500,16.000,1.000,2.000,5.000,0
"03/08/08","11:13:45",7204.000,"cc",28313.660,6.00,6,0.100,6347.000,0.200,746.000,0.300,96.000,0.500,15.000,1.000,0,5.000,0
"03/08/08","11:13:51",7567.000,"cc",28326.178,6.00,6,0.100,6620.000,0.200,799.000,0.300,118.000,0.500,26.000,1.000,4.000,5.000,0
"03/08/08","11:13:57",7412.000,"cc",28335.527,6.00,6,0.100,6404.000,0.200,836.000,0.300,115.000,0.500,55.000,1.000,2.000,5.000,0
"03/08/08","11:14:03",7157.000,"cc",28251.748,6.00,6,0.100,6284.000,0.200,773.000,0.300,78.000,0.500,21.000,1.000,1.000,5.000,0
"03/08/08","11:14:09",7377.000,"cc",28346.039,6.00,6,0.100,6467.000,0.200,803.000,0.300,89.000,0.500,17.000,1.000,1.000,5.000,0
"03/08/08","11:14:15",7223.000,"cc",28307.578,6.00,6,0.100,6372.000,0.200,752.000,0.300,83.000,0.500,16.000,1.000,0,5.000,0
"03/08/08","11:14:21",7424.000,"cc",28347.137,6.00,6,0.100,6491.000,0.200,822.000,0.300,88.000,0.500,23.000,1.000,0,5.000,0
"03/08/08","11:14:27",7364.000,"cc",28356.625,6.00,6,0.100,6466.000,0.200,809.000,0.300,72.000,0.500,17.000,1.000,0,5.000,0
"03/08/08","11:14:33",7157.000,"cc",28307.652,6.00,6,0.100,6343.000,0.200,741.000,0.300,58.000,0.500,15.000,1.000,0,5.000,0
"03/08/08","11:14:39",7440.000,"cc",28279.072,6.00,6,0.100,6533.000,0.200,820.000,0.300,73.000,0.500,12.000,1.000,2.000,5.000,0
"03/08/08","11:14:45",7434.000,"cc",28351.240,6.00,6,0.100,6492.000,0.200,858.000,0.300,70.000,0.500,14.000,1.000,0,5.000,0
"03/08/08","11:14:51",7336.000,"cc",28258.012,6.00,6,0.100,6402.000,0.200,832.000,0.300,86.000,0.500,16.000,1.000,0,5.000,0
"03/08/08","11:14:57",7429.000,"cc",28300.938,6.00,6,0.100,6547.000,0.200,790.000,0.300,85.000,0.500,6.000,1.000,1.000,5.000,0
"03/08/08","11:15:03",7342.000,"cc",28353.861,6.00,6,0.100,6436.000,0.200,824.000,0.300,67.000,0.500,14.000,1.000,1.000,5.000,0
"03/08/08","11:15:09",7468.000,"cc",28304.459,6.00,6,0.100,6563.000,0.200,807.000,0.300,86.000,0.500,12.000,1.000,0,5.000,0
"03/08/08","11:15:15",7285.000,"cc",28309.500,6.00,6,0.100,6382.000,0.200,814.000,0.300,72.000,0.500,17.000,1.000,0,5.000,0
"03/08/08","11:15:21",7570.000,"cc",28390.762,6.00,6,0.100,6604.000,0.200,843.000,0.300,98.000,0.500,25.000,1.000,0,5.000,0
"03/08/08","11:15:27",7600.000,"cc",28248.525,6.00,6,0.100,6590.000,0.200,876.000,0.300,106.000,0.500,25.000,1.000,3.000,5.000,0
"03/08/08","11:15:33",7384.000,"cc",28286.697,6.00,6,0.100,6454.000,0.200,825.000,0.300,96.000,0.500,9.000,1.000,0,5.000,0
"03/08/08","11:15:39",7497.000,"cc",28320.615,6.00,6,0.100,6578.000,0.200,829.000,0.300,69.000,0.500,21.000,1.000,0,5.000,0
"03/08/08","11:15:45",7550.000,"cc",28369.988,6.00,6,0.100,6599.000,0.200,827.000,0.300,97.000,0.500,25.000,1.000,2.000,5.000,0
"03/08/08","11:15:51",7664.000,"cc",28328.031,6.00,6,0.100,6626.000,0.200,871.000,0.300,124.000,0.500,40.000,1.000,3.000,5.000,0
"03/08/08","11:15:57",7552.000,"cc",28273.111,6.00,6,0.100,6583.000,0.200,872.000,0.300,83.000,0.500,13.000,1.000,1.000,5.000,0
"03/08/08","11:16:03",7695.000,"cc",28350.887,6.00,6,0.100,6707.000,0.200,863.000,0.300,96.000,0.500,28.000,1.000,1.000,5.000,0
"03/08/08","11:16:09",7701.000,"cc",28283.863,6.00,6,0.100,6774.000,0.200,799.000,0.300,95.000,0.500,30.000,1.000,3.000,5.000,0
"03/08/08","11:16:15",7970.000,"cc",28259.311,6.00,6,0.100,6957.000,0.200,884.000,0.300,98.000,0.500,27.000,1.000,4.000,5.000,0
"03/08/08","11:16:21",7932.000,"cc",28331.188,6.00,6,0.100,6827.000,0.200,928.000,0.300,122.000,0.500,51.000,1.000,4.000,5.000,0
"03/08/08","11:16:27",8989.000,"cc",28291.363,6.00,6,0.100,7362.000,0.200,1157.000,0.300,319.000,0.500,133.000,1.000,18.000,5.000,0
"03/08/08","11:16:33",7642.000,"cc",28419.717,6.00,6,0.100,6625.000,0.200,894.000,0.300,103.000,0.500,20.000,1.000,0,5.000,0
"03/08/08","11:16:39",7457.000,"cc",28329.949,6.00,6,0.100,6539.000,0.200,805.000,0.300,89.000,0.500,24.000,1.000,0,5.000,0
"03/08/08","11:16:45",7677.000,"cc",28308.754,6.00,6,0.100,6782.000,0.200,821.000,0.300,64.000,0.500,9.000,1.000,1.000,5.000,0
"03/08/08","11:16:51",9608.000,"cc",28328.658,6.00,6,0.100,8516.000,0.200,977.000,0.300,91.000,0.500,22.000,1.000,2.000,5.000,0
"03/08/08","11:16:57",7688.000,"cc",28252.486,6.00,6,0.100,6704.000,0.200,844.000,0.300,106.000,0.500,32.000,1.000,2.000,5.000,0
"03/08/08","11:17:03",7661.000,"cc",28308.184,6.00,6,0.100,6746.000,0.200,810.000,0.300,85.000,0.500,18.000,1.000,2.000,5.000,0
"03/08/08","11:17:09",7510.000,"cc",28309.510,6.00,6,0.100,6599.000,0.200,813.000,0.300,72.000,0.500,25.000,1.000,1.000,5.000,0
"03/08/08","11:17:15",7669.000,"cc",28331.637,6.00,6,0.100,6651.000,0.200,882.000,0.300,108.000,0.500,27.000,1.000,1.000,5.000,0
"03/08/08","11:17:21",7694.000,"cc",28268.467,6.00,6,0.100,6781.000,0.200,829.000,0.300,69.000,0.500,15.000,1.000,0,5.000,0
"03/08/08","11:17:27",7856.000,"cc",28310.785,6.00,6,0.100,6842.000,0.200,869.000,0.300,115.000,0.500,30.000,1.000,0,5.000,0
"03/08/08","11:17:33",7518.000,"cc",28347.275,6.00,6,0.100,6585.000,0.200,833.000,0.300,81.000,0.500,16.000,1.000,3.000,5.000,0
"03/08/08","11:17:39",7380.000,"cc",28285.318,6.00,6,0.100,6531.000,0.200,758.000,0.300,86.000,0.500,5.000,1.000,0,5.000,0
"03/08/08","11:17:45",7132.000,"cc",28363.160,6.00,6,0.100,6319.000,0.200,724.000,0.300,76.000,0.500,13.000,1.000,0,5.000,0